Regional Weather Roundup
Issued by NWS

Home | Current Version | Previous Version | Text Only | Print | Product List | Glossary Off
Versions: 1 2 3 4 5 6 7 8 9 10 11 12 13 14 15 16 17 18 19 20 21 22 23 24 25 26 27 28 29 30 31 32 33 34 35 36 37 38 39 40 41 42 43 44 45 46 47 48 49 50

105
ASUS45 KBOU 040907
RWRCO

WEATHER ROUNDUP FOR COLORADO
NATIONAL WEATHER SERVICE DENVER/BOULDER CO
200 AM MST SUN DEC 04 2016

NOTE: "FAIR" INDICATES FEW OR NO CLOUDS BELOW 12000 FEET WITH NO
SIGNIFICANT WEATHER AND/OR OBSTRUCTIONS TO VISIBILITY.

COZ001>005-013-030-031-041000-
...NORTHWEST COLORADO...

CITY           SKY/WX    TMP DP  RH WIND       PRES   REMARKS
CRAIG          FAIR      10   6  84 SE3       30.20R
HAYDEN         CLOUDY    18  10  73 E3        30.18S
MEEKER         FAIR       6   1  80 N3        30.21R
MOUNT WERNER   NOT AVBL
STEAMBOAT SPGS CLOUDY    16  13  90 SE5       30.17S WCI   8
WALDEN           N/A     14   9  79 S13       30.08S WCI   0
$$

COZ006>008-011-041000-
...WEST CENTRAL VALLEYS...

CITY           SKY/WX    TMP DP  RH WIND       PRES   REMARKS
GRAND JUNCTION FAIR      20  16  84 E8        30.24S WCI  10
MONTROSE       FAIR      18  10  71 SE10      30.26F WCI   6
EAGLE          FAIR      10   5  80 CALM      30.25R
RIFLE          FAIR      15  10  80 CALM      30.26R
DELTA          FAIR      21  16  79 NE3       30.26F
NUCLA          FAIR      18  10  73 SE7       30.24F WCI   8
$$

COZ017>023-064>068-041000-
...SOUTHWEST COLORADO...

CITY           SKY/WX    TMP DP  RH WIND       PRES   REMARKS
DURANGO        FAIR      17  12  80 NE9       30.12R WCI   6
CORTEZ         FAIR      16  11  80 E7        30.15R WCI   6
PAGOSA SPRINGS FAIR      15  14  95 CALM      30.12R
TELLURIDE      FAIR      12   6  75 E3        30.18R
WOLF CREEK PAS FAIR      18 -17  21 NW7       30.13R WCI   8
$$

COZ009-010-012-014-032>034-037-058>063-041000-
...CENTRAL COLORADO...

CITY           SKY/WX    TMP DP  RH WIND       PRES   REMARKS
ASPEN          FAIR      10   3  73 SW8       30.16F WCI  -2
BUENA VISTA    FAIR      21   2  44 NW16G32   30.07S WCI   7
COPPER MTN     FAIR       7   0  72 CALM      30.05S
BERTHOUD PASS  CLOUDY     0 -13  55 NW31G37   29.94R WCI -27
COTTONWOOD PAS FAIR      21  -8  27 S6        30.03F WCI  14
GUNNISON       FAIR       4   0  83 CALM      30.21S
KREMMLING      FAIR      19  12  73 CALM      30.17R
LEADVILLE      FAIR      -1  -6  79 VRB3      30.09S
MONARCH PASS   MOCLDY     3   0  85 W45G55    30.10S WCI -25
SALIDA         FAIR      20   5  51 W6        30.17S WCI  13
SUNLIGHT       FAIR     N/A N/A N/A SW8       30.14S
WILKERSON PASS FAIR      10  -8  44 NW12G22   30.00F WCI  -4
$$

COZ069>075-041000-
...SAN LUIS VALLEY/SANGRE DE CRISTO MOUNTAINS...

CITY           SKY/WX    TMP DP  RH WIND       PRES   REMARKS
ALAMOSA        FAIR      -4  -8  83 CALM      30.13R
LA VETA PASS   FAIR      12   9  85 NE21G31   30.03R WCI  -6
SAGUACHE       FAIR      23   5  46 N15G21    30.12S WCI  10
$$

COZ035-036-038>040-041000-
...NORTHERN COLORADO FRONT RANGE...

CITY           SKY/WX    TMP DP  RH WIND       PRES   REMARKS
DENVER INTL AP FAIR      22   8  55 SW10      30.02F WCI  11
DMNS CITY PARK   N/A     27   7  43 SE10      30.04R WCI  17
AURORA         CLEAR     19   8  62 S9        30.03F WCI   9
FRONT RANGE AP FAIR      28  10  47 SW13      30.03S WCI  18
ERIE MUNI ARPT FAIR      21   7  54 CALM      30.03R
BOULDER MUN AP FAIR      34   3  27 W7        30.02R WCI  28
CENTENNIAL     FAIR      19   6  57 S6        30.02F WCI  11
BROOMFIELD     FAIR      30   5  34 W6        30.02R WCI  24
FORT COLLINS   FAIR      21  16  79 CALM      30.02F
LONGMONT       FAIR      21   9  61 CALM      30.04R
$$

COZ041-046-047-076>085-087-088-041000-
...PIKES PEAK/PALMER DIVIDE AND SOUTHERN FOOTHILLS...

CITY           SKY/WX    TMP DP  RH WIND       PRES   REMARKS
COLO. SPRINGS  FAIR      25   9  50 SW3       30.05S
A. F. ACADEMY  FAIR      14   4  64 E5        30.02F WCI   7
SCHRIEVER AFB  NOT AVBL
ELLICOTT       FAIR     N/A N/A N/A CALM        N/A
FALCON         FAIR      21   6  52 W9        30.04S WCI  10
FORT CARSON    FAIR      19   9  65 NW6       30.03S WCI  11
LIMON          FAIR       6   4  91 CALM      30.05S
MONUMENT HILL  FAIR      12   3  67 SW8       30.02F WCI   1
TRINIDAD       FAIR      21  13  71 W12       30.06S WCI   9
$$

COZ042>045-048>051-090-091-041000-
...NORTHEAST COLORADO...

CITY           SKY/WX    TMP DP  RH WIND       PRES   REMARKS
GREELEY ARPT   FAIR      12   7  80 CALM      30.04F
AKRON          FAIR      21  11  65 W12       30.02F WCI   9
BURLINGTON     FAIR      21  12  68 NW9       30.05R WCI  11
WRAY           NOT AVBL
STERLING       FAIR      28  14  54 NW15      30.02R WCI  17
HOLYOKE        FAIR      27  16  63 W10       30.03S WCI  17
FORT MORGAN    FAIR      15  11  82 W6        30.05R WCI   7
$$

COZ086-089-092>099-041000-
...SOUTHEAST COLORADO...

CITY           SKY/WX    TMP DP  RH WIND       PRES   REMARKS
PUEBLO         FAIR      18  11  74 SE5       30.08R WCI  11
LA JUNTA       FAIR      21  15  78 W10       30.08R WCI  10
LAMAR          MIX PCPN  17  14  88 SW9       30.07R WCI   6
SPRINGFIELD      N/A     19  17  92 W10       30.06R WCI   7
$$




USA.gov is the U.S. government's official web portal to all federal, state and local government web resources and services.